{"data":{"norad_id":44076,"intl_designator":"2019-017A","name":"TIANLIAN 2-01","alt_names":[],"object_type":"PAYLOAD","status":"ACTIVE","operator":null,"country":"PRC","launch_date":"2019-03-31","launch_site_code":"XICLF","launch_vehicle":null,"mission":null,"orbit_class":"UNKNOWN","rcs_meters":null,"size_class":null,"mass_kg":null,"dimensions":null,"purposes":["comms"],"wikipedia_slug":null,"has_3d_model":false,"image_url":null,"decayed_at":null,"tle_current":{"epoch":"2026-05-25T04:06:37.651968Z","epoch_age_seconds":53572,"freshness":"FRESH","line1":"1 44076U 19017A   26145.17126912 -.00000109  00000+0  00000+0 0  9995","line2":"2 44076   0.4825  83.0672 0000894 318.3404 340.0351  1.00271449 26419","mean_motion":1.00271449,"eccentricity":8.94e-5,"inclination_deg":0.4825,"raan_deg":83.0672,"arg_perigee_deg":318.3404,"mean_anomaly_deg":340.0351,"bstar":0,"rev_number":2641,"period_min":1436.1017162523,"perigee_km":35782.919618993,"apogee_km":35790.458689909,"semimajor_km":42164.826154451,"source":"CELESTRAK","updated_at":"2026-05-25T13:38:14.062877Z"}}}